This is the latest recevied weather packets stored in our database for station/object AC1IX. If no packets are shown the sender has not sent any weather packets the latest 10 day(s).
| Time | Temp. | Humidity | Pressure | Rain* | Wind** | Luminosity | Snow |
|---|---|---|---|---|---|---|---|
| 1777691248 | 7.22° C | 82% | 1012.4 hPa | 0 mm | - | 0 W/m² | - |
| 1777690945 | 7.22° C | 81% | 1012.4 hPa | 0 mm | - | 0 W/m² | - |
| 1777690648 | 6.67° C | 80% | 1012.5 hPa | 0 mm | - | 0 W/m² | - |
| 1777690340 | 6.67° C | 81% | 1012.3 hPa | 0 mm | - | 0 W/m² | - |
| 1777690038 | 6.67° C | 81% | 1012.2 hPa | 0 mm | - | 0 W/m² | - |
| 1777689735 | 6.67° C | 81% | 1012.4 hPa | 0 mm | - | 0 W/m² | - |
| 1777689434 | 7.22° C | 81% | 1012.1 hPa | 0 mm | - | 0 W/m² | - |
| 1777689130 | 7.22° C | 80% | 1012.3 hPa | 0 mm | - | 0 W/m² | - |
| 1777688828 | 7.22° C | 78% | 1012.3 hPa | 0 mm | - | 0 W/m² | - |
| 1777688524 | 7.22° C | 80% | 1012.4 hPa | 0 mm | - | 0 W/m² | - |
| 1777688221 | 7.22° C | 79% | 1012.1 hPa | 0 mm | - | 0 W/m² | - |
| 1777687919 | 7.22° C | 78% | 1012.4 hPa | 0 mm | - | 0 W/m² | - |
| 1777687615 | 7.22° C | 74% | 1012.7 hPa | 0 mm | - | 0 W/m² | - |
| 1777687312 | 7.22° C | 75% | 1012.4 hPa | 0 mm | - | 0 W/m² | - |
| 1777687011 | 7.78° C | 74% | 1012.5 hPa | 0 mm | - | 0 W/m² | - |
| 1777686706 | 7.78° C | 68% | 1012.4 hPa | 0 mm | - | 0 W/m² | - |
| 1777686404 | 7.78° C | 66% | 1012.3 hPa | 0 mm | - | 0 W/m² | - |
| 1777686101 | 8.33° C | 66% | 1012.6 hPa | 0 mm | - | 0 W/m² | - |
| 1777685797 | 8.33° C | 65% | 1012.5 hPa | 0 mm | - | 0 W/m² | - |
| 1777685492 | 8.89° C | 65% | 1012.2 hPa | 0 mm | - | 0 W/m² | - |
| 1777685190 | 8.89° C | 66% | 1012.6 hPa | 0 mm | - | 0 W/m² | - |
| 1777684888 | 8.89° C | 66% | 1012.4 hPa | 0 mm | - | 0 W/m² | - |
| 1777684584 | 8.89° C | 64% | 1012.4 hPa | 0 mm | - | 0 W/m² | - |
| 1777684280 | 8.89° C | 64% | 1012.4 hPa | 0 mm | - | 0 W/m² | - |
| 1777683978 | 8.89° C | 65% | 1012.4 hPa | 0 mm | - | 0 W/m² | - |
* Rain latest hour (hover to see other rain measurements)
** Current wind speed in m/s (hover to see current wind gust speed)